Regional Weather Roundup
Issued by NWS

Home | Current Version | Previous Version | Text Only | Print | Product List | Glossary Off
Versions: 1 2 3 4 5 6 7 8 9 10 11 12 13 14 15 16 17 18 19 20 21 22 23 24 25 26 27 28 29 30 31 32 33 34 35 36 37 38 39 40 41 42 43 44 45 46 47 48 49 50

741
ASUS44 KLIX 170410
RWRLA
LOUISIANA WEATHER ROUNDUP
NATIONAL WEATHER SERVICE NEW ORLEANS LA
1100 PM CDT WED APR 16 2014

NOTE: "FAIR" INDICATES FEW OR NO CLOUDS BELOW 12,000 FEET WITH NO
      SIGNIFICANT WEATHER AND/OR OBSTRUCTIONS TO VISIBILITY.
      SKY/WX - SKY CONDITION AND SIGNIFICANT WEATHER.
      TMP - AIR TEMPERATURE.    DP   - DEWPOINT TEMPERATURE.
      RH  - RELATIVE HUMIDITY.  PRES - PRESSURE.
      HX  - HEAT INDEX.         WCI  - WIND CHILL INDEX.

*  THESE STATIONS ARE NOT NWS OR FAA STATIONS AND ARE NOT UNDER
   NWS QUALITY CONTROL.

LAZ040-048-061>063-065-066-069-170500-
SOUTHEAST LOUISIANA

CITY           SKY/WX    TMP DP  RH WIND       PRES   REMARKS
N.O. AUDUBON   NOT AVBL
N.O. INTL ARPT CLEAR     53  44  71 CALM      30.17S
N.O. LAKEFRONT CLEAR     55  47  74 SE8       30.17S
N.O. DOWNTOWN* FAIR      55  43  62 SE5       30.17S
SLIDELL        CLEAR     46  43  89 CALM      30.16S
BATON ROUGE    CLEAR     50  42  74 E7        30.15R
BOOTHVILLE     CLOUDY    58  49  72 E6        30.16S
BELLE CHASSE   PTCLDY    48  44  86 CALM      30.16S
BOGALUSA*        N/A     49  44  85 CALM      30.18S
GALLIANO*      CLOUDY    59  48  67 E7        30.15F
NEW ROADS*     FAIR      53  42  66 SE3       30.15R
GONZALES*      FAIR      53  47  80 E6        30.16R
HAMMOND*       CLEAR     50  43  76 CALM      30.18S
HOUMA*           N/A     51  45  79 E6        30.16R HAZE
PORT FOURCHON* CLOUDY    59  48  67 E10       30.16S

$$

LAZ041-044-053-054-170500-
SOUTHWEST LOUISIANA

CITY           SKY/WX    TMP DP  RH WIND       PRES   REMARKS
LAKE CHARLES   PTCLDY    52  49  89 SE5       30.10F
LAFAYETTE      CLEAR     52  50  93 CALM      30.14R
PATTERSON      CLEAR     54  46  76 SE6       30.17S
SALT POINT       N/A     58  49  72 SE7       30.13R
NEW IBERIA     CLEAR     52  48  86 SE7       30.14R
CHENAULT AIRPK PTCLDY    53  49  86 SE6       30.11F

$$

LAZ027-028-170500-
CENTRAL LOUISIANA

CITY           SKY/WX    TMP DP  RH WIND       PRES   REMARKS
FORT POLK      CLEAR     48  44  86 CALM      30.10S
ALEXANDRIA INT CLEAR     51  45  79 CALM      30.11R
ALEXANDRIA     CLEAR     45  42  89 CALM      30.13R

$$

LAZ001-002-170500-
NORTHWEST LOUISIANA

CITY           SKY/WX    TMP DP  RH WIND       PRES   REMARKS
SHREVEPORT     CLEAR     49  40  71 E3        30.09R
BARKSDALE AFB  CLEAR     49  39  68 SE3       30.10R
DTN SHREVEPORT CLEAR     51  39  63 CALM      30.10R

$$

LAZ014-016-170500-
NORTHEAST LOUISIANA

CITY           SKY/WX    TMP DP  RH WIND       PRES   REMARKS
MONROE         CLEAR     44  41  89 CALM      30.14R
TALLULAH       CLEAR     53  48  83 CALM      30.14R

$$




USA.gov is the U.S. government's official web portal to all federal, state and local government web resources and services.